EW8073 Weather Reports


Display with metric or nautical units.
time (UTC)temp
F
wind
direction
speed
MPH
gust
MPH
rain 1hr
in
rain 24hr
in
rain mn
in
humidity
%
barometer
mb
20260902192439 85 112 0.0 3.0 0.00 0.00 0.00 29 1015.8
20260902191939 85 112 0.0 3.0 0.00 0.00 0.00 29 1015.9
20260902191438 85 112 0.0 0.0 0.00 0.00 0.00 30 1015.9
20260902190938 85 112 0.0 0.0 0.00 0.00 0.00 30 1016.0
20260902185939 84 113 0.0 0.0 0.00 0.00 0.00 30 1016.1
20260902185439 84 113 0.0 0.0 0.00 0.00 0.00 32 1016.2
20260902184939 84 113 0.0 0.0 0.00 0.00 0.00 29 1016.2
20260902184441 84 148 0.0 0.0 0.00 0.00 0.00 30 1016.4
20260902183939 84 78 0.0 0.0 0.00 0.00 0.00 33 1016.4
20260902183436 83 78 0.0 0.0 0.00 0.00 0.00 31 1016.6
20260902182938 83 329 0.0 0.0 0.00 0.00 0.00 31 1016.6
20260902182434 83 331 0.0 0.0 0.00 0.00 0.00 31 1016.7
20260902181934 83 331 0.0 0.0 0.00 0.00 0.00 31 1016.8
20260902180935 83 5 0.0 0.0 0.00 0.00 0.00 30 1017.1
20260902180432 83 0 0.0 0.0 0.00 0.00 0.00 32 1017.2
20260902175932 83 69 0.0 0.0 0.00 0.00 0.00 32 1017.3
20260902175434 83 66 0.0 0.0 0.00 0.00 0.00 34 1017.5
20260902174927 82 66 0.0 0.0 0.00 0.00 0.00 33 1017.5
20260902174420 82 66 0.0 0.0 0.00 0.00 0.00 32 1017.5
20260902173915 82 66 0.0 0.0 0.00 0.00 0.00 32 1017.5
20260902173408 82 69 0.0 0.0 0.00 0.00 0.00 32 1017.5
20260902172904 82 66 0.0 0.0 0.00 0.00 0.00 34 1017.6
20260902172356 82 65 0.0 0.0 0.00 0.00 0.00 34 1017.6
20260902171850 81 65 0.0 0.0 0.00 0.00 0.00 34 1017.6
20260902170839 81 63 0.0 0.0 0.00 0.00 0.00 34 1017.8
20260902170332 80 64 0.0 0.0 0.00 0.00 0.00 34 1017.9
20260902165826 80 64 0.0 0.0 0.00 0.00 0.00 35 1017.9
20260902165320 80 64 0.0 5.0 0.00 0.00 0.00 35 1017.9
20260902164308 79 214 0.0 0.0 0.00 0.00 0.00 33 1017.9
20260902163802 79 214 0.0 0.0 0.00 0.00 0.00 37 1018.0
20260902163256 79 217 0.0 0.0 0.00 0.00 0.00 39 1018.0
20260902162750 78 217 0.0 2.0 0.00 0.00 0.00 38 1018.0
20260902162244 78 217 0.0 3.0 0.00 0.00 0.00 40 1018.1
20260902161740 78 217 0.0 3.0 0.00 0.00 0.00 41 1018.0
20260902161233 77 233 0.0 0.0 0.00 0.00 0.00 41 1018.0
20260902160726 77 234 0.0 1.0 0.00 0.00 0.00 42 1018.0
20260902160220 76 234 0.0 1.0 0.00 0.00 0.00 44 1018.1
20260902155714 76 234 0.0 0.0 0.00 0.00 0.00 45 1018.1
20260902155208 75 234 0.0 1.0 0.00 0.00 0.00 45 1018.1
20260902154156 74 234 0.0 0.0 0.00 0.00 0.00 48 1018.1
20260902153145 73 234 0.0 0.0 0.00 0.00 0.00 51 1018.1
20260902152639 73 234 0.0 0.0 0.00 0.00 0.00 53 1018.0
20260902152133 72 234 0.0 0.0 0.00 0.00 0.00 53 1018.1
20260902151628 72 234 0.0 0.0 0.00 0.00 0.00 55 1018.0
20260902151120 71 235 0.0 0.0 0.00 0.00 0.00 56 1018.1
20260902150616 70 235 0.0 0.0 0.00 0.00 0.00 57 1018.1
20260902150109 69 235 0.0 0.0 0.00 0.00 0.00 58 1018.1
20260902145604 69 235 0.0 0.0 0.00 0.00 0.00 58 1018.1
20260902145058 69 235 0.0 0.0 0.00 0.00 0.00 59 1018.1
20260902144550 68 235 1.0 4.0 0.00 0.00 0.00 60 1018.1
20260902144044 67 247 1.0 4.0 0.00 0.00 0.00 60 1018.2
20260902143032 65 240 0.0 0.0 0.00 0.00 0.00 64 1018.2
20260902142526 64 318 0.0 0.0 0.00 0.00 0.00 69 1018.1
20260902141514 63 323 0.0 0.0 0.00 0.00 0.00 72 1018.1
20260902140504 61 324 0.0 0.0 0.00 0.00 0.00 73 1018.0
20260902135450 60 324 0.0 0.0 0.00 0.00 0.00 73 1018.0
20260902134944 60 324 0.0 0.0 0.00 0.00 0.00 73 1018.1
20260902134438 59 324 0.0 0.0 0.00 0.00 0.00 73 1018.1
20260902133932 59 324 0.0 0.0 0.00 0.00 0.00 72 1018.0
20260902133428 59 324 0.0 0.0 0.00 0.00 0.00 72 1018.0
20260902132922 58 324 0.0 0.0 0.00 0.00 0.00 72 1018.0
20260902132416 58 324 0.0 0.0 0.00 0.00 0.00 71 1018.0
20260902131910 58 324 0.0 0.0 0.00 0.00 0.00 71 1017.9
20260902130856 58 324 0.0 0.0 0.00 0.00 0.00 70 1017.8
20260902130350 58 324 0.0 0.0 0.00 0.00 0.00 69 1017.6
20260902125844 58 324 0.0 0.0 0.00 0.00 0.00 69 1017.6
20260902125338 59 324 0.0 0.0 0.00 0.00 0.00 69 1017.5
20260902124832 59 324 0.0 0.0 0.00 0.00 0.00 68 1017.5
20260902124326 59 324 0.0 0.0 0.00 0.00 0.00 68 1017.6
20260902123821 59 324 0.0 0.0 0.00 0.00 0.00 68 1017.5
20260902123316 59 324 0.0 0.0 0.00 0.00 0.00 68 1017.5
20260902122809 59 324 0.0 0.0 0.00 0.00 0.00 68 1017.4
20260902122305 59 324 0.0 0.0 0.00 0.00 0.00 68 1017.4
20260902121250 60 324 0.0 0.0 0.00 0.00 0.00 67 1017.2
20260902120746 60 324 0.0 0.0 0.00 0.00 0.00 67 1017.1
20260902120246 60 324 0.0 0.0 0.00 0.00 0.00 67 1017.1
20260902115744 60 324 0.0 0.0 0.00 0.00 0.00 67 1017.1
20260902115242 60 324 0.0 0.0 0.00 0.00 0.00 67 1017.1
20260902114741 60 324 0.0 0.0 0.00 0.00 0.00 67 1017.1
20260902114242 60 324 0.0 0.0 0.00 0.00 0.00 67 1017.1
20260902113238 61 324 0.0 0.0 0.00 0.00 0.00 66 1017.1
20260902112736 61 324 0.0 0.0 0.00 0.00 0.00 66 1017.1
20260902111736 61 324 0.0 0.0 0.00 0.00 0.00 66 1017.1
20260902111236 61 324 0.0 0.0 0.00 0.00 0.00 66 1016.9
20260902110735 61 324 0.0 0.0 0.00 0.00 0.00 66 1016.8
20260902105731 61 324 0.0 0.0 0.00 0.00 0.00 66 1016.8
20260902105232 61 324 0.0 0.0 0.00 0.00 0.00 66 1016.7
20260902104732 61 324 0.0 0.0 0.00 0.00 0.00 65 1016.7
20260902104232 61 324 0.0 0.0 0.00 0.00 0.00 65 1016.8
20260902103731 61 328 0.0 0.0 0.00 0.00 0.00 65 1016.8
20260902103231 62 328 0.0 0.0 0.00 0.00 0.00 65 1016.7
20260902102231 62 328 0.0 0.0 0.00 0.00 0.00 65 1016.7
20260902101733 62 328 0.0 0.0 0.00 0.00 0.00 65 1016.7
20260902101231 62 328 0.0 0.0 0.00 0.00 0.00 64 1016.7
20260902100732 62 328 0.0 0.0 0.00 0.00 0.00 64 1016.6
20260902100231 62 328 0.0 0.0 0.00 0.00 0.00 64 1016.7
20260902095733 62 328 0.0 0.0 0.00 0.00 0.00 64 1016.7
20260902095232 62 329 0.0 0.0 0.00 0.00 0.00 63 1016.7
20260902094732 62 329 0.0 0.0 0.00 0.00 0.00 63 1016.7
20260902094232 62 329 0.0 0.0 0.00 0.00 0.00 63 1016.7
20260902093732 62 329 0.0 0.0 0.00 0.00 0.00 63 1016.8
20260902093233 62 329 0.0 0.0 0.00 0.00 0.00 62 1016.8
20260902092725 63 329 0.0 0.0 0.00 0.00 0.00 62 1016.9
20260902092221 63 329 0.0 0.0 0.00 0.00 0.00 62 1016.8
20260902091714 63 329 0.0 0.0 0.00 0.00 0.00 62 1016.9
20260902091209 63 329 0.0 0.0 0.00 0.00 0.00 62 1016.9
20260902090704 63 329 0.0 0.0 0.00 0.00 0.00 61 1016.8
20260902090157 63 329 0.0 0.0 0.00 0.00 0.00 61 1016.8
20260902085652 63 329 0.0 0.0 0.00 0.00 0.00 60 1016.6
20260902084640 64 329 0.0 0.0 0.00 0.00 0.00 60 1016.6
20260902084133 64 329 0.0 0.0 0.00 0.00 0.00 60 1016.6
20260902083121 64 329 0.0 0.0 0.00 0.00 0.00 60 1016.6
20260902082615 64 329 0.0 0.0 0.00 0.00 0.00 59 1016.6
20260902082110 64 329 0.0 0.0 0.00 0.00 0.00 59 1016.6
20260902081605 65 329 0.0 0.0 0.00 0.00 0.00 59 1016.6
20260902081058 65 329 0.0 0.0 0.00 0.00 0.00 59 1016.6
20260902080552 65 329 0.0 0.0 0.00 0.00 0.00 59 1016.7
20260902080045 65 329 0.0 0.0 0.00 0.00 0.00 59 1016.7
20260902075035 65 329 0.0 0.0 0.00 0.00 0.00 59 1016.8
20260902074528 66 329 0.0 0.0 0.00 0.00 0.00 59 1016.8
20260902074022 66 329 0.0 0.0 0.00 0.00 0.00 59 1016.8
20260902073515 66 329 0.0 0.0 0.00 0.00 0.00 59 1016.8
20260902073010 66 329 0.0 0.0 0.00 0.00 0.00 59 1016.8
20260902072503 66 329 0.0 0.0 0.00 0.00 0.00 58 1016.7
20260902071959 67 329 0.0 0.0 0.00 0.00 0.00 58 1016.6
20260902070946 67 329 0.0 0.0 0.00 0.00 0.00 57 1016.5
20260902070439 67 329 0.0 0.0 0.00 0.00 0.00 57 1016.4
20260902065939 67 329 0.0 0.0 0.00 0.00 0.00 57 1016.4
20260902064437 67 328 0.0 0.0 0.00 0.00 0.00 59 1016.4
20260902063933 67 329 0.0 0.0 0.00 0.00 0.00 59 1016.4
20260902062934 67 328 0.0 0.0 0.00 0.00 0.00 61 1016.2
20260902061929 67 338 0.0 0.0 0.00 0.00 0.00 61 1016.2
20260902061427 67 338 0.0 0.0 0.00 0.00 0.00 61 1016.1
20260902060427 67 338 0.0 0.0 0.00 0.00 0.00 61 1016.0
20260902055927 68 337 0.0 0.0 0.00 0.00 0.00 60 1016.2
20260902055426 68 13 0.0 0.0 0.00 0.00 0.00 59 1016.1
20260902054924 68 13 0.0 0.0 0.00 0.00 0.00 59 1016.1
20260902054423 68 13 0.0 0.0 0.00 0.00 0.00 59 1016.1
20260902053424 68 13 0.0 0.0 0.00 0.00 0.00 58 1016.1
20260902052923 69 13 0.0 0.0 0.00 0.00 0.00 58 1016.1
20260902052424 69 13 0.0 0.0 0.00 0.00 0.00 57 1016.1
20260902051424 69 13 0.0 0.0 0.00 0.00 0.00 57 1016.2
20260902050924 69 13 0.0 0.0 0.00 0.00 0.00 57 1016.2
20260902050424 70 13 0.0 0.0 0.00 0.00 0.00 57 1016.4
20260902045923 70 13 0.0 0.0 0.00 0.00 0.00 56 1016.4
20260902044924 70 13 0.0 0.0 0.00 0.00 0.00 56 1016.4
20260902043924 71 13 0.0 0.0 0.00 0.00 0.00 55 1016.5
20260902043417 71 13 0.0 0.0 0.00 0.00 0.00 55 1016.6
20260902042911 71 13 0.0 0.0 0.00 0.00 0.00 54 1016.7
20260902042405 71 5 0.0 0.0 0.00 0.00 0.00 54 1016.7
20260902041858 72 5 0.0 0.0 0.00 0.00 0.00 54 1016.7
20260902041354 72 5 0.0 0.0 0.00 0.00 0.00 53 1016.7
20260902040847 72 5 0.0 0.0 0.00 0.00 0.00 53 1016.7
20260902040340 72 5 0.0 0.0 0.00 0.00 0.00 53 1016.7
20260902035835 72 5 0.0 0.0 0.00 0.00 0.00 53 1016.6
20260902033811 73 5 0.0 0.0 0.00 0.01 0.00 51 1016.7
20260902033305 73 5 0.0 0.0 0.00 0.01 0.00 51 1016.7
20260902032758 74 5 0.0 0.0 0.00 0.01 0.00 50 1016.6
20260902031746 74 295 0.0 0.0 0.00 0.02 0.00 50 1016.6
20260902031241 75 295 0.0 0.0 0.00 0.03 0.00 50 1016.7
20260902030734 75 295 0.0 0.0 0.00 0.03 0.00 49 1016.7
20260902025724 76 295 0.0 0.0 0.00 0.03 0.00 48 1016.6
20260902024710 76 295 0.0 0.0 0.00 0.03 0.00 46 1016.5
20260902024205 77 295 0.0 0.0 0.00 0.03 0.00 46 1016.2
20260902023659 77 295 0.0 0.0 0.00 0.03 0.00 47 1016.1
20260902023153 78 295 0.0 0.0 0.00 0.03 0.00 46 1016.1
20260902022647 78 295 0.0 0.0 0.00 0.03 0.00 45 1016.1
20260902022142 78 295 0.0 0.0 0.00 0.03 0.00 44 1016.1
20260902021634 78 293 0.0 0.0 0.00 0.03 0.00 43 1016.1
20260902021129 79 293 0.0 0.0 0.00 0.03 0.00 42 1016.1
20260902020623 79 293 0.0 0.0 0.00 0.04 0.00 41 1016.0
20260902020117 79 293 0.0 0.0 0.00 0.06 0.00 41 1016.0
20260902015104 80 293 0.0 0.0 0.00 0.06 0.00 39 1015.8
20260902014559 80 293 0.0 0.0 0.00 0.07 0.00 38 1015.8
20260902014054 80 293 0.0 0.0 0.00 0.07 0.00 38 1015.8
20260902013547 81 293 0.0 0.0 0.00 0.07 0.00 38 1015.9
20260902013041 81 293 0.0 0.0 0.00 0.07 0.00 37 1015.7
20260902012537 81 293 0.0 0.0 0.00 0.08 0.00 37 1015.7
20260902012029 82 293 0.0 0.0 0.00 0.08 0.00 37 1015.7
20260902011523 82 293 0.0 0.0 0.00 0.08 0.00 36 1015.5
20260902011017 82 293 0.0 0.0 0.00 0.08 0.00 36 1015.5
20260902010512 83 293 0.0 0.0 0.00 0.08 0.00 35 1015.4
20260902010006 83 293 0.0 0.0 0.00 0.08 0.00 35 1015.4
20260902005459 83 293 0.0 0.0 0.00 0.08 0.00 34 1015.3
20260902004953 84 292 0.0 0.0 0.00 0.08 0.00 33 1015.4
20260902003942 85 292 0.0 0.0 0.00 0.08 0.00 32 1015.4
20260902002929 85 292 0.0 0.0 0.00 0.08 0.00 32 1015.4
20260902002422 85 292 0.0 0.0 0.00 0.08 0.00 31 1015.3
20260902001916 86 292 0.0 0.0 0.00 0.08 0.00 29 1015.3
20260902001411 86 292 0.0 0.0 0.00 0.08 0.00 29 1015.4
20260902000905 86 292 0.0 0.0 0.00 0.08 0.00 29 1015.4
20260902000359 86 292 0.0 0.0 0.00 0.08 0.00 28 1015.4
20260901235346 86 292 0.0 0.0 0.00 0.08 0.00 29 1015.4
20260901234840 86 292 0.0 0.0 0.00 0.08 0.00 29 1015.4
20260901234335 86 290 0.0 0.0 0.00 0.08 0.00 32 1015.5
20260901233830 85 290 0.0 0.0 0.00 0.08 0.00 29 1015.5
20260901233323 85 290 0.0 0.0 0.00 0.08 0.00 30 1015.5
20260901232817 86 290 0.0 0.0 0.00 0.08 0.00 28 1015.5
20260901231805 86 294 0.0 0.0 0.00 0.08 0.00 28 1015.5
20260901231259 86 294 0.0 0.0 0.00 0.08 0.00 26 1015.5
20260901230754 86 294 0.0 0.0 0.00 0.08 0.00 27 1015.5
20260901230246 87 271 0.0 0.0 0.00 0.08 0.00 30 1015.5
20260901225234 87 271 0.0 0.0 0.00 0.08 0.00 28 1015.5
20260901224731 87 271 0.0 0.0 0.00 0.08 0.00 27 1015.7
20260901224231 87 271 0.0 0.0 0.00 0.08 0.00 29 1015.7
20260901223730 87 0 0.0 0.0 0.00 0.08 0.00 28 1015.7
20260901222225 87 283 0.0 0.0 0.00 0.08 0.00 30 1015.8
20260901221723 87 275 0.0 0.0 0.00 0.08 0.00 29 1015.8
20260901221221 86 275 0.0 0.0 0.00 0.08 0.00 36 1015.8
20260901220723 86 275 0.0 0.0 0.00 0.08 0.00 33 1015.9
20260901220218 86 275 0.0 0.0 0.00 0.08 0.00 30 1015.9
20260901215717 86 275 0.0 0.0 0.00 0.08 0.00 30 1016.0
20260901215217 87 275 0.0 0.0 0.00 0.08 0.00 31 1016.0
20260901214717 86 223 0.0 0.0 0.00 0.08 0.00 29 1016.0
20260901214215 86 221 0.0 0.0 0.00 0.08 0.00 29 1016.0
20260901213211 87 219 0.0 0.0 0.00 0.08 0.00 28 1016.1
20260901212711 88 209 0.0 0.0 0.00 0.08 0.00 29 1016.1
20260901212209 88 209 0.0 0.0 0.00 0.08 0.00 31 1016.1
20260901211205 87 209 0.0 0.0 0.00 0.08 0.00 32 1016.1
20260901210704 87 210 0.0 0.0 0.00 0.08 0.00 33 1016.2
20260901210205 86 210 0.0 0.0 0.00 0.08 0.00 33 1016.4
20260901205704 84 210 0.0 0.0 0.00 0.08 0.00 35 1016.4
20260901204705 85 210 0.0 0.0 0.00 0.08 0.00 34 1016.5
20260901204204 85 209 0.0 0.0 0.00 0.08 0.00 30 1016.5
20260901203705 86 98 0.0 0.0 0.00 0.08 0.00 33 1016.6
20260901203206 86 98 0.0 0.0 0.00 0.08 0.00 32 1016.6
20260901202700 85 98 0.0 0.0 0.00 0.08 0.00 34 1016.6
20260901202200 85 91 0.0 0.0 0.00 0.08 0.00 35 1016.6
20260901200700 84 146 0.0 0.0 0.00 0.08 0.00 33 1016.9
20260901200200 85 148 0.0 0.0 0.00 0.08 0.00 32 1016.9
20260901195200 83 192 0.0 0.0 0.00 0.08 0.00 37 1017.1
20260901194700 83 192 0.0 0.0 0.00 0.08 0.00 37 1017.1
20260901194156 82 192 0.0 0.0 0.00 0.08 0.00 38 1017.1
20260901193656 82 192 0.0 0.0 0.00 0.08 0.00 39 1017.2
20260901193157 82 195 0.0 0.0 0.00 0.08 0.00 40 1017.2